This demonstration page uses our WeatherBlox Daily Observations layout. Learn more.

Left ArrowRight Arrow

Hourly Observations for August 31, 2020

Temp ( °F °C ) Dew Point ( °F °C ) Humidity (%) Winds ( mph kmh ) Pressure ( in mb ) Visibility ( mi km ) Precip ( " mm )
12:53 am 00:53 Clear 69 20.6 65 18.3 87 87 SSE 8 13 29.63 1004 10 16 0.00 0.00
1:40 am 01:40 Mostly Cloudy 68 20 65 18.3 90 90 NNW 15 24 29.70 1006 10 16 0.00 0.00
1:49 am 01:49 Mostly Cloudy 70 21 64 18 83 83 NNW 15 24 29.70 1006 10 16 0.00 0.00
1:53 am 01:53 Mostly Cloudy 69 20.6 65 18.3 87 87 N 15 24 29.72 1006 10 16 0.00 0.00
2:53 am 02:53 Cloudy 65 18.3 58 14.4 78 78 N 20 31 29.75 1007 10 16 0.00 0.00
3:50 am 03:50 Cloudy with Light Rain 63 17 57 14 83 83 NNE 17 28 29.79 1009 9 14 0.00 0.00
3:53 am 03:53 Cloudy with Light Rain 63 17.2 57 13.9 81 81 NNE 20 31 29.79 1009 9 14 0.00 0.00
4:53 am 04:53 Cloudy 64 17.8 51 10.6 63 63 N 20 31 29.82 1010 10 16 0.00 0.00
5:53 am 05:53 Cloudy 63 17.2 45 7.2 52 52 N 18 30 29.84 1011 10 16 0.00 0.00
6:53 am 06:53 Cloudy 62 16.7 45 7.2 54 54 N 12 19 29.85 1011 10 16 0.00 0.00
7:53 am 07:53 Mostly Cloudy 60 15.6 45 7.2 58 58 N 14 22 29.87 1012 10 16 0.00 0.00
8:53 am 08:53 Sunny 61 16.1 44 6.7 54 54 N 15 24 29.88 1012 10 16 0.00 0.00
9:53 am 09:53 Sunny 63 17.2 44 6.7 50 50 N 18 30 29.90 1012 10 16 0.00 0.00
10:53 am 10:53 Sunny 65 18.3 44 6.7 47 47 N 14 22 29.91 1013 10 16 0.00 0.00
11:53 am 11:53 Sunny 68 20 45 7.2 44 44 NNE 14 22 29.91 1013 10 16 0.00 0.00
12:53 pm 12:53 Sunny 71 21.7 45 7.2 39 39 NE 13 20 29.91 1013 10 16 0.00 0.00
1:53 pm 13:53 Sunny 72 22.2 45 7.2 38 38 NE 14 22 29.90 1012 10 16 0.00 0.00
2:53 pm 14:53 Sunny 74 23.3 44 6.7 34 34 ENE 10 17 29.90 1012 10 16 0.00 0.00
3:53 pm 15:53 Sunny 74 23.3 43 6.1 33 33 ENE 12 19 29.88 1012 10 16 0.00 0.00
4:53 pm 16:53 Sunny 74 23.3 43 6.1 33 33 E 13 20 29.87 1011 10 16 0.00 0.00
5:53 pm 17:53 Sunny 73 22.8 45 7.2 37 37 E 10 17 29.85 1011 10 16 0.00 0.00
6:53 pm 18:53 Sunny 71 21.7 44 6.7 38 38 E 10 17 29.85 1011 10 16 0.00 0.00
7:53 pm 19:53 Sunny 68 20 45 7.2 44 44 E 6 9 29.85 1011 10 16 0.00 0.00
8:53 pm 20:53 Clear 60 15.6 48 8.9 65 65 NE 3 6 29.86 1011 9 14 0.00 0.00
9:53 pm 21:53 Clear 59 15 50 10 72 72 Calm 29.91 1013 10 16 0.00 0.00
10:53 pm 22:53 Clear 58 14.4 49 9.4 72 72 Calm 29.94 1014 10 16 0.00 0.00
11:53 pm 23:53 Clear 57 13.9 48 8.9 72 72 NNE 5 7 29.94 1014 10 16 0.00 0.00

Powered by AerisWeather